Vancouver, WA

11:20 AM PDT on May 23, 2017 (GMT -0700)
Pearson

Weather History for KVUO - March, 2014

Change the Weather History Date:

Saturday, March 22, 2014

  Actual Average Record
Temperature  
Mean Temperature 45 °F 49 °F  
Max Temperature 62 °F 58 °F 78 °F (1939)
Min Temperature 27 °F 40 °F 23 °F (1898)
Degree Days  
Heating Degree Days 20    
Month to date heating degree days 381  
Since 1 July heating degree days 3844  
Cooling Degree Days 0    
Month to date cooling degree days 0  
Year to date cooling degree days 0  
Moisture  
Dew Point 27 °F    
Average Humidity 52    
Maximum Humidity 85    
Minimum Humidity 19    
Precipitation  
Precipitation 0.00 in 0.12 in 0.98 in (1948)
Month to date precipitation 3.98 2.63  
Year to date precipitation 10.87 12.16  
Sea Level Pressure  
Sea Level Pressure 30.27 in    
Wind  
Wind Speed 3 mph (NW)    
Max Wind Speed 10 mph    
Max Gust Speed 14 mph    
Visibility 10 miles    
Events      
T = Trace of Precipitation, MM = Missing Value Source: NWS Daily Summary

Daily Weather History Graph

Daily Weather History Graph

Search for Another Location

Airport or City:

Trip Planner

Search our weather history database for the weather conditions in past years. The results will help you decide how hot, cold, wet, or windy it might be!

Date:

Astronomy

Mar. 22, 2014 Rise Set
Actual Time 7:09 AM PDT 7:25 PM PDT
Civil Twilight 6:40 AM PDT 7:55 PM PDT
Nautical Twilight 6:05 AM PDT 8:30 PM PDT
Astronomical Twilight 5:29 AM PDT 9:06 PM PDT
Moon 1:04 AM PDT (3/22) 10:43 AM PDT (3/22)
Length of Visible Light 13h 15m
Length of Day
12h 16m
Waning Gibbous, 64% of the Moon is Illuminated
Mar 22
Waning Gibbous
Mar 23
Last Quarter
Mar 30
New
Apr 7
First Quarter
Apr 15
Full

Hourly Weather History & Observations

Time (PDT) Temp. Windchill Dew Point Humidity Pressure Visibility Wind Dir Wind Speed Gust Speed Precip Events Conditions
12:53 AM 35.1 °F - 28.0 °F 76% 30.29 in 10.0 mi Calm Calm - N/A   Clear
1:53 AM 33.1 °F - 27.0 °F 78% 30.29 in 10.0 mi Calm Calm - N/A   Clear
2:53 AM 32.0 °F - 26.1 °F 79% 30.29 in 10.0 mi Calm Calm - N/A   Clear
3:53 AM 30.0 °F - 25.0 °F 82% 30.30 in 10.0 mi Calm Calm - N/A   Clear
4:53 AM 30.0 °F - 24.1 °F 79% 30.30 in 10.0 mi Calm Calm - N/A   Clear
5:53 AM 30.0 °F - 25.0 °F 82% 30.30 in 10.0 mi Calm Calm - N/A   Clear
6:53 AM 28.0 °F - 25.0 °F 88% 30.31 in 10.0 mi Calm Calm - N/A   Clear
7:53 AM 30.0 °F - 26.1 °F 85% 30.32 in 10.0 mi Calm Calm - N/A   Clear
8:53 AM 37.0 °F - 32.0 °F 82% 30.32 in 10.0 mi Calm Calm - N/A   Clear
9:53 AM 42.1 °F 38.4 °F 32.0 °F 67% 30.32 in 10.0 mi WNW 5.8 mph - N/A   Clear
10:53 AM 46.0 °F - 32.0 °F 58% 30.31 in 10.0 mi Calm Calm - N/A   Clear
11:53 AM 48.0 °F - 34.0 °F 58% 30.30 in 10.0 mi WSW 8.1 mph - N/A   Clear
12:53 PM 52.0 °F - 33.1 °F 49% 30.28 in 10.0 mi WSW 8.1 mph - N/A   Clear
1:53 PM 57.0 °F - 28.0 °F 33% 30.26 in 10.0 mi WNW 8.1 mph - N/A   Clear
2:53 PM 59.0 °F - 25.0 °F 27% 30.24 in 10.0 mi Variable 4.6 mph - N/A   Clear
3:53 PM 60.1 °F - 17.1 °F 19% 30.22 in 10.0 mi West 3.5 mph - N/A   Clear
4:53 PM 61.0 °F - 21.0 °F 21% 30.20 in 10.0 mi Variable 5.8 mph - N/A   Clear
5:53 PM 60.1 °F - 24.1 °F 25% 30.19 in 10.0 mi NW 5.8 mph - N/A   Clear
6:53 PM 60.1 °F - 27.0 °F 28% 30.19 in 10.0 mi NNW 5.8 mph - N/A   Clear
7:53 PM 57.0 °F - 27.0 °F 32% 30.20 in 10.0 mi NNW 5.8 mph - N/A   Clear
8:53 PM 54.0 °F - 28.0 °F 37% 30.22 in 10.0 mi North 4.6 mph - N/A   Clear
9:53 PM 52.0 °F - 30.0 °F 43% 30.23 in 10.0 mi NW 6.9 mph - N/A   Clear
10:53 PM 50.0 °F - 26.1 °F 39% 30.24 in 10.0 mi NW 5.8 mph - N/A   Clear
11:53 PM 44.1 °F - 26.1 °F 49% 30.25 in 10.0 mi Calm Calm - N/A   Clear